Location: Horowhenua
(40.7500°S, 175.3333°E)
Time: 12:14:36
(UTC+00:00)

Cosmos 1066 Rocket - Pass Details

Date: 28 January 2023
Orbit: 798 x 894 km, 81.2° (Epoch: 28 March)

Event Time Altitude Azimuth Distance (km) Brightness Sun altitude
Exits shadow 14:05:59 56° 61° (ENE) 969 4.4 -27.1°
Maximum altitude 14:06:29 58° 85° (E) 947 4.4 -27.1°
Drops below altitude 10° 14:11:54 10° 163° (SSE) 2,449 7.6 -26.6°
Sets 14:14:23 0° 166° (SSE) 3,403 8.6 -26.4°
